Weather History for Midland Airpark, TX

Change the Weather History Date:

Thursday, June 28, 2012

  Actual Average (KMAF) Record (KMAF)
Temperature  
Mean Temperature 90 °F 82 °F  
Max Temperature 101 °F 95 °F 114 °F (1994)
Min Temperature 79 °F 69 °F 52 °F (1985)
Cooling Degree Days 25 17  
Month to date cooling degree days 428  
Year to date cooling degree days 817  
Since 1 June cooling degree days 428  
Growing Degree Days 40 (Base 50)    
Moisture  
Dew Point 51 °F    
Average Humidity 27    
Maximum Humidity 43    
Minimum Humidity 15    
Precipitation  
Precipitation 0.00 in 0.06 in 0.23 in (1977)
Month to date precipitation 1.68  
Year to date precipitation 5.94  
Sea Level Pressure  
Sea Level Pressure 30.03 in    
Wind  
Wind Speed 9 mph (SSE)    
Max Wind Speed 16 mph    
Max Gust Speed 21 mph    
Visibility 10 miles    
Events      
T = Trace of Precipitation, MM = Missing Value Source: NWS Daily Summary

Daily Weather History Graph

Daily Weather History Graph

Search for Another Location

Airport:

Trip Planner

Search our weather history database for the weather conditions in past years. The results will help you decide how hot, cold, wet, or windy it might be!

Date:

Astronomy

Jun. 28, 2012 Rise Set
Actual Time 6:44 AM CDT 8:58 PM CDT
Civil Twilight 6:16 AM CDT 9:26 PM CDT
Nautical Twilight 5:42 AM CDT 10:01 PM CDT
Astronomical Twilight 5:04 AM CDT 10:38 PM CDT
Moon 3:44 PM CDT (6/28) 2:06 AM CDT (6/28)
Length of Visible Light 15h 10m
Length of Day
14h 13m
Waxing Gibbous, 67% of the Moon is Illuminated
Jun 28
Waxing Gibbous
Jul 3
Full
Jul 10
Last Quarter
Jul 18
New
Jul 26
First Quarter

Hourly Weather History & Observations

Time (CDT) Temp. Heat Index Dew Point Humidity Pressure Visibility Wind Dir Wind Speed Gust Speed Precip Events Conditions
12:15 AM 90.9 °F - 50.9 °F 25% 30.00 in 10.0 mi SSE 9.2 mph - N/A   Clear
12:35 AM 90.1 °F - 51.4 °F 27% 30.00 in 10.0 mi SSE 9.2 mph - N/A   Clear
12:55 AM 89.4 °F - 52.0 °F 28% 30.00 in 10.0 mi SSE 10.4 mph - N/A   Clear
1:15 AM 88.7 °F - 52.2 °F 29% 30.00 in 10.0 mi South 9.2 mph - N/A   Clear
1:35 AM 87.6 °F - 52.3 °F 30% 30.00 in 10.0 mi South 8.1 mph - N/A   Clear
1:55 AM 86.7 °F - 52.3 °F 31% 30.00 in 10.0 mi South 8.1 mph - N/A   Clear
2:15 AM 86.0 °F - 52.5 °F 32% 30.00 in 10.0 mi South 8.1 mph - N/A   Clear
2:35 AM 85.6 °F - 52.7 °F 32% 30.00 in 10.0 mi South 5.8 mph - N/A   Clear
2:55 AM 84.9 °F - 52.7 °F 33% 30.00 in 10.0 mi South 5.8 mph - N/A   Clear
3:15 AM 84.0 °F - 52.7 °F 34% 30.00 in 10.0 mi South 5.8 mph - N/A   Clear
3:35 AM 83.5 °F - 52.7 °F 34% 30.01 in 10.0 mi South 6.9 mph - N/A   Clear
3:55 AM 83.1 °F - 52.5 °F 35% 30.01 in 10.0 mi South 6.9 mph - N/A   Clear
4:15 AM 82.2 °F - 52.7 °F 36% 30.01 in 10.0 mi South 5.8 mph - N/A   Clear
4:35 AM 81.7 °F - 52.9 °F 37% 30.02 in 10.0 mi SSE 5.8 mph - N/A   Clear
4:55 AM 81.5 °F - 52.9 °F 37% 30.02 in 10.0 mi SSE 8.1 mph - N/A   Clear
5:15 AM 81.1 °F - 52.9 °F 37% 30.02 in 10.0 mi SSE 6.9 mph - N/A   Clear
5:35 AM 80.6 °F - 52.7 °F 38% 30.03 in 10.0 mi South 6.9 mph - N/A   Clear
5:55 AM 80.2 °F - 52.9 °F 39% 30.03 in 10.0 mi SSE 5.8 mph - N/A   Clear
6:15 AM 79.7 °F - 53.1 °F 40% 30.03 in 10.0 mi SSE 6.9 mph - N/A   Clear
6:35 AM 79.2 °F - 53.2 °F 41% 30.04 in 10.0 mi SSE 6.9 mph - N/A   Clear
6:55 AM 79.3 °F - 53.6 °F 41% 30.05 in 10.0 mi SSE 8.1 mph - N/A   Clear
7:15 AM 79.7 °F - 54.0 °F 41% 30.06 in 10.0 mi SSE 8.1 mph - N/A   Clear
7:35 AM 79.9 °F - 54.9 °F 42% 30.06 in 10.0 mi SSE 9.2 mph - N/A   Clear
7:55 AM 80.4 °F 80.5 °F 55.8 °F 43% 30.06 in 10.0 mi South 11.5 mph - N/A   Clear
8:15 AM 81.3 °F 81.2 °F 56.8 °F 43% 30.07 in 10.0 mi South 13.8 mph 17.3 mph N/A   Clear
8:35 AM 82.4 °F 82.2 °F 57.6 °F 43% 30.07 in 10.0 mi South 11.5 mph - N/A   Clear
8:55 AM 83.8 °F 83.4 °F 58.5 °F 42% 30.08 in 10.0 mi South 15.0 mph 20.7 mph N/A   Clear
9:15 AM 84.9 °F 84.4 °F 58.5 °F 41% 30.08 in 10.0 mi South 13.8 mph - N/A   Clear
9:35 AM 86.2 °F 85.4 °F 58.3 °F 39% 30.09 in 10.0 mi South 16.1 mph - N/A   Clear
9:55 AM 87.6 °F 86.5 °F 57.7 °F 36% 30.09 in 10.0 mi SSW 12.7 mph 18.4 mph N/A   Clear
10:15 AM 89.2 °F 87.9 °F 57.2 °F 34% 30.09 in 10.0 mi South 11.5 mph - N/A   Clear
10:35 AM 90.5 °F 89.0 °F 56.5 °F 32% 30.09 in 10.0 mi SSW 12.7 mph - N/A   Clear
10:55 AM 91.8 °F 90.0 °F 56.3 °F 30% 30.09 in 10.0 mi SSW 10.4 mph - N/A   Clear
11:15 AM 92.7 °F 90.9 °F 56.1 °F 29% 30.09 in 10.0 mi South 11.5 mph 17.3 mph N/A   Clear
11:35 AM 93.7 °F 92.0 °F 55.6 °F 28% 30.10 in 10.0 mi South 9.2 mph 16.1 mph N/A   Clear
11:55 AM 94.8 °F 92.8 °F 55.2 °F 26% 30.09 in 10.0 mi South 11.5 mph 16.1 mph N/A   Clear
12:15 PM 95.5 °F 93.4 °F 54.0 °F 25% 30.09 in 10.0 mi South 10.4 mph - N/A   Clear
12:35 PM 96.6 °F 94.2 °F 53.6 °F 23% 30.09 in 10.0 mi SW 8.1 mph 16.1 mph N/A   Clear
12:55 PM 97.3 °F 94.8 °F 53.1 °F 22% 30.08 in 10.0 mi SSE 11.5 mph 17.3 mph N/A   Clear
1:15 PM 98.1 °F - 52.3 °F 21% 30.08 in 10.0 mi Calm Calm - N/A   Clear
1:35 PM 98.4 °F - 51.4 °F 20% 30.07 in 10.0 mi East 5.8 mph - N/A   Clear
1:55 PM 99.3 °F - 50.5 °F 19% 30.07 in 10.0 mi SSE 6.9 mph - N/A   Clear
2:15 PM 99.0 °F - 50.7 °F 20% 30.06 in 10.0 mi East 5.8 mph 17.3 mph N/A   Clear
2:35 PM 100.0 °F - 50.2 °F 19% 30.05 in 10.0 mi SSE 10.4 mph - N/A   Clear
2:55 PM 99.3 °F - 49.8 °F 19% 30.05 in 10.0 mi SSE 9.2 mph 19.6 mph N/A   Clear
3:15 PM 99.7 °F - 48.9 °F 18% 30.04 in 10.0 mi ESE 4.6 mph 9.2 mph N/A   Clear
3:35 PM 100.8 °F - 48.9 °F 17% 30.04 in 10.0 mi SE 11.5 mph 17.3 mph N/A   Clear
3:55 PM 100.8 °F - 48.7 °F 17% 30.03 in 10.0 mi East 9.2 mph 17.3 mph N/A   Clear
4:15 PM 100.8 °F - 47.5 °F 16% 30.03 in 10.0 mi SSE 5.8 mph - N/A   Clear
4:35 PM 101.5 °F - 45.5 °F 15% 30.02 in 10.0 mi SE 13.8 mph 19.6 mph N/A   Clear
4:55 PM 100.6 °F - 45.9 °F 16% 30.02 in 10.0 mi SE 8.1 mph - N/A   Clear
5:15 PM 100.6 °F - 45.5 °F 15% 30.01 in 10.0 mi SE 15.0 mph 19.6 mph N/A   Clear
5:35 PM 99.7 °F - 45.3 °F 16% 30.00 in 10.0 mi SE 5.8 mph - N/A   Clear
5:55 PM 100.8 °F - 44.6 °F 15% 30.00 in 10.0 mi ESE 12.7 mph 19.6 mph N/A   Clear
6:15 PM 100.9 °F - 45.9 °F 15% 29.99 in 10.0 mi SE 16.1 mph 20.7 mph N/A   Clear
6:35 PM 100.4 °F - 46.6 °F 16% 29.99 in 10.0 mi SE 10.4 mph - N/A   Clear
6:55 PM 100.2 °F - 46.4 °F 16% 29.99 in 10.0 mi SE 10.4 mph 16.1 mph N/A   Clear
7:15 PM 99.5 °F - 46.4 °F 16% 29.99 in 10.0 mi SSE 12.7 mph 18.4 mph N/A   Clear
7:35 PM 98.8 °F - 46.4 °F 17% 29.99 in 10.0 mi SSE 10.4 mph - N/A   Clear
7:55 PM 98.2 °F - 46.2 °F 17% 30.00 in 10.0 mi SE 11.5 mph - N/A   Clear
8:15 PM 97.7 °F - 45.7 °F 17% 30.00 in 10.0 mi SSE 10.4 mph - N/A   Clear
8:35 PM 96.8 °F - 46.2 °F 18% 30.00 in 10.0 mi SE 10.4 mph 16.1 mph N/A   Clear
8:55 PM 96.1 °F - 46.8 °F 18% 30.00 in 10.0 mi SE 12.7 mph - N/A   Clear
9:15 PM 95.2 °F - 47.7 °F 20% 30.00 in 10.0 mi SSE 13.8 mph - N/A   Clear
9:55 PM 93.6 °F - 48.2 °F 21% 30.01 in 10.0 mi SSE 9.2 mph - N/A   Clear
10:15 PM 92.8 °F - 48.2 °F 22% 30.02 in 10.0 mi SE 9.2 mph - N/A   Clear
10:35 PM 91.8 °F - 48.2 °F 22% 30.02 in 10.0 mi SSE 8.1 mph - N/A   Clear
10:55 PM 91.4 °F - 48.4 °F 23% 30.03 in 10.0 mi SE 10.4 mph - N/A   Clear
11:15 PM 90.3 °F - 48.7 °F 24% 30.03 in 10.0 mi SE 11.5 mph 16.1 mph N/A   Clear
11:35 PM 89.8 °F - 49.5 °F 25% 30.03 in 10.0 mi SE 12.7 mph 18.4 mph N/A   Clear
11:55 PM 89.1 °F - 49.8 °F 26% 30.04 in 10.0 mi SE 13.8 mph 17.3 mph N/A   Clear